Location: Lucerne Valley
(34.4439°N, 116.9669°E)
Time: 00:49:09
(UTC-07:00)

Tiangong 1 - Pass Details

Date: 14 October 2017
Orbit: 292 x 319 km, 42.8° (Epoch: 23 October)

Event Time Altitude Azimuth Distance (km) Brightness Sun altitude
Rises 03:27:11 0° 304° (NW) 2,041 5.7 -10.7°
Reaches altitude 10° 03:29:27 10° 322° (NW) 1,204 4.1 -11.1°
Maximum altitude 03:31:37 21° 15° (NNE) 760 2.4 -11.6°
Enters shadow 03:32:41 17° 49° (NE) 881 2.4 -11.8°
